Location: Unspecified
(50.0830°N, 0.0000°E)
Time: 00:59:58
(UTC+00:00)

Envisat - Pass Details

Date: 25 November 2019
Orbit: 764 x 766 km, 98.1° (Epoch: 07 December)

Event Time Altitude Azimuth Distance (km) Brightness Sun altitude
Rises 16:54:49 0° 138° (SE) 3,224 6.0 -7.9°
Reaches altitude 10° 16:57:15 10° 130° (SE) 2,301 5.2 -8.2°
Maximum altitude 17:01:51 36° 65° (ENE) 1,209 3.5 -8.9°
Drops below altitude 10° 17:06:27 10° 0° (N) 2,315 5.3 -9.6°
Sets 17:08:55 0° 352° (N) 3,245 6.1 -10.0°
